AirNav   Pilot Hours Calculator
 
 1118 users online  

MO55 SSM Health St Louis University Hospital Heliport
St Louis, Missouri, USA

GOING TO ST LOUIS?


FAA INFORMATION EFFECTIVE 03 DECEMBER 2020

Location

FAA Identifier: MO55
Lat/Long: 38-37-14.4600N 090-14-23.7800W
38-37.241000N 090-14.396333W
38.6206833,-90.2399389
(estimated)
Elevation: 550 ft. / 168 m (estimated)
Variation: 02E (1985)
From city: 3 miles W of ST LOUIS, MO
Time zone: UTC -6 (UTC -5 during Daylight Saving Time)
Zip code: 63104

Heliport Operations

Heliport use: Private use, MEDICAL.
Activation date: 11/1988
Control tower: no
ARTCC: KANSAS CITY CENTER
FSS: SAINT LOUIS FLIGHT SERVICE STATION
Attendance: CONTINUOUS
Wind indicator: yes
Segmented circle: no
Lights: ACTVT FLOOD LGTS - 123.050.
Beacon: white-green-yellow (heliport)
24 HRS.

Heliport Communications

WX ASOS at CPS (5 nm SE): PHONE 618-332-0001
WX ASOS at STL (10 nm NW): 125.025 (314-890-4790)
WX AWOS-3 at ALN (19 nm NE): 128.0 (618-259-7231)
WX ASOS at SUS (19 nm W): 134.8 (314-890-7255)

Nearby radio navigation aids

VOR radial/distance  VOR name  Freq  Var
TOYr241/16.6TROY VORTAC116.0004E
STLr141/18.3ST LOUIS VORTAC117.4001E
FTZr092/34.5FORISTELL VORTAC110.8005E

 
NDB name  Hdg/Dist  Freq  Var  ID
ACORE306/10.435000ECP -.-. .--.
EAVES104/14.822701WFZ ..-. --..
CIVIC MEMORIAL209/18.426301WCVM -.-. ...- --

Heliport Services

Runway Information

Helipad H1

Dimensions: 50 x 50 ft. / 15 x 15 m
Surface: metal
ROOFTOP.
Runway edge lights: FLD
Latitude: 38-37.241000N
Longitude: 090-14.396333W
Elevation: 550.0 ft.
Traffic pattern: leftleft

Heliport Ownership and Management from official FAA records

Ownership: Privately-owned
Owner: SSM HEALTH ST. LOUIS UNIV. HOSPITAL
1015 CORPORATE SQUARE DR.
ST LOUIS, MO 63132
Phone (314) 989-2895
Manager: JOHN O'BRIEN
1015 CORPORATE SQ DR., SUITE 160
ST LOUIS, MO 63132
Phone (314) 989-2895

Additional Remarks

A52-H1 30' BLDG (LGTD) 150' W & 30' SIGN STRUCTURE 35' S OF PAD.
DUE TO MULTIPLE OBSTRUCTIONS WITHIN H1 TLOF, FATO, AND SAFETY AREAS, NO CLEAR INGRESS/EGRESS EXISTS FOR THIS HELIPORT. EXERCISE CAUTION.
FOR CD CTC ST LOUIS APCH AT 314-890-1018.

Instrument Procedures

There are no published instrument procedures at MO55.

Some nearby airports with instrument procedures:

KCPS - St Louis Downtown Airport (5 nm SE)
KSTL - St Louis Lambert International Airport (10 nm NW)
1H0 - Creve Coeur Airport (14 nm NW)
KALN - St Louis Regional Airport (19 nm NE)
KSUS - Spirit of St Louis Airport (19 nm W)
KBLV - Scott Air Force Base/MidAmerica Airport (20 nm E)
 
Loc | Ops | Rwys | IFR | FBO | Links
Com | Nav | Svcs | Stats | Notes
Area around MO55 (SSM Health St Louis University Hospital Heliport)
 
Road maps at: MapQuest Bing Google
 
Aerial photo
No photo
 
Sectional chart

 
Airport distance calculator
Flying to SSM Health St Louis University Hospital Heliport? Find the distance to fly.

From to MO55

Sunrise and sunset
Times for 04-Dec-2020
 Local
(UTC-6)
 Zulu
(UTC)
Morning civil twilight06:3512:35
Sunrise07:0513:05
Sunset16:3922:39
Evening civil twilight17:0823:08

Current date and time
Zulu (UTC)  04-Dec-2020 23:58:33
Local (UTC-6)  04-Dec-2020 17:58:33
 
METAR
KCPS 
5nm SE 
042353Z 26005KT 10SM CLR 08/M02 A3002 RMK AO2 SLP168 T00781017 10100 20078 53010
KSTL 
10nm NW 
042351Z 24007KT 10SM CLR 08/M02 A3002 RMK AO2 SLP171 T00781017 10111 20078 53010
KALN 
18nm NE 
042350Z 24006KT 10SM CLR 05/00 A3001
KSUS 
19nm W 
042354Z 24003KT 10SM CLR 05/M02 A3002 RMK AO2 SLP171 T00501017 10106 20050 53009
KBLV 
20nm E 
042256Z AUTO 23005KT 10SM CLR 07/00 A3000 RMK AO2 SLP165 T00691003 $
TAF
KCPS 
5nm SE 
041726Z 0418/0518 27009KT P6SM SCT035
KSTL 
10nm NW 
041726Z 0418/0524 26010KT P6SM SCT120
KSUS 
19nm W 
041726Z 0418/0518 26009KT P6SM SCT120
KBLV 
20nm E 
041600Z 0416/0522 28012KT 9999 FEW050 QNH2998INS BECMG 0420/0421 30006KT 9999 SCT100 QNH3002INS BECMG 0511/0512 VRB06KT 6000 BR SKC QNH3006INS TX11/0421Z TNM02/0510Z
NOTAMs
Click for the latest NOTAMs
NOTAMs are issued by the DoD/FAA and will open in a separate window not controlled by AirNav.

 

 
 

Would you like to see your business listed on this page?

 If your business provides an interesting product or service to pilots, flight crews, aircraft, or users of the SSM Health St Louis University Hospital Heliport, you should consider listing it here.  To start the listing process, click on the button below
 
Add a business
 

Other Pages about SSM Health St Louis University Hospital Heliport

Update a link
 
Copyright © AirNav, LLC. All rights reserved. Privacy Policy  Contact